Location: Nied?wied?
(53.3665°N, 14.8184°E)
Time: 23:55:42
(UTC+00:00)

SPOT 1/Viking Rocket - Pass Details

Date: 03 March 2021
Orbit: 778 x 793 km, 98.4° (Epoch: 11 April)

Event Time Altitude Azimuth Distance (km) Brightness Sun altitude
Exits shadow 18:49:17 30° 67° (ENE) 1,389 4.4 -19.5°
Maximum altitude 18:49:38 30° 59° (ENE) 1,382 4.4 -19.6°
Drops below altitude 10° 18:54:05 10° 0° (N) 2,355 6.2 -20.2°
Sets 18:56:39 0° 350° (N) 3,290 7.1 -20.6°
